When you browse on this site, cookies collect data to enhance your experience and personalize the content and advertising you see.
Visit our Privacy Policy to learn more. By continuing to use the site, you agree to this use of cookies and data.
  • In Hungary
  • List of Countries
  • For 7 days
  • Water Temperature
  • Satellite Maps
  • Weather Map
  • News
  • Weather Widgets
  • user-avatar
    Login

    Hourly Weather Kachkars'ke

    Today, 23 February, Saturday

    Time Temperature Precipitation Wind Pressure Humidity
    00:00 -8°C° 0.4 mm 7 mps 759 mmHg 81%
    01:00 -8°C° 0.3 mm 7 mps 759 mmHg 81%
    02:00 -9°C° 0.3 mm 7 mps 760 mmHg 81%
    03:00 -9°C° 0 mm 7 mps 760 mmHg 84%
    04:00 -9°C° 0.2 mm 7 mps 760 mmHg 83%
    05:00 -9°C° 0.2 mm 7 mps 761 mmHg 83%
    06:00 -11°C° 0.2 mm 7 mps 761 mmHg 82%
    07:00 -11°C° 0.1 mm 7 mps 762 mmHg 81%
    08:00 -11°C° 0.1 mm 7 mps 762 mmHg 79%
    09:00 -11°C° 0.1 mm 7 mps 763 mmHg 78%
    10:00 -9°C° 0.1 mm 7 mps 763 mmHg 75%
    11:00 -8°C° 0.1 mm 7 mps 763 mmHg 73%
    12:00 -8°C° 0.1 mm 7 mps 764 mmHg 71%
    13:00 -7°C° 0 mm 7 mps 764 mmHg 70%
    14:00 -6°C° 0 mm 6 mps 764 mmHg 69%
    15:00 -6°C° 0 mm 6 mps 764 mmHg 68%
    16:00 -6°C° 0 mm 6 mps 765 mmHg 70%
    17:00 -8°C° 0 mm 6 mps 765 mmHg 73%
    18:00 -8°C° 0 mm 6 mps 765 mmHg 75%
    19:00 -9°C° 0 mm 6 mps 766 mmHg 76%
    20:00 -9°C° 0 mm 6 mps 766 mmHg 77%
    21:00 -10°C° 0 mm 6 mps 766 mmHg 78%
    22:00 -10°C° 0 mm 6 mps 767 mmHg 78%
    23:00 -10°C° 0 mm 6 mps 767 mmHg 78%

    Tomorrow, 24 February, Sunday

    Time Temperature Precipitation Wind Pressure Humidity
    00:00 -10°C° 0 mm 6 mps 767 mmHg 78%
    01:00 -10°C° 0 mm 6 mps 767 mmHg 79%
    02:00 -10°C° 0 mm 6 mps 767 mmHg 79%
    03:00 -10°C° 0 mm 5 mps 767 mmHg 80%
    04:00 -11°C° 0 mm 5 mps 767 mmHg 81%
    05:00 -11°C° 0 mm 5 mps 767 mmHg 82%
    06:00 -11°C° 0 mm 5 mps 767 mmHg 83%
    07:00 -11°C° 0 mm 5 mps 767 mmHg 82%
    08:00 -11°C° 0 mm 5 mps 768 mmHg 82%
    09:00 -11°C° 0 mm 5 mps 768 mmHg 81%
    10:00 -9°C° 0 mm 4 mps 768 mmHg 76%
    11:00 -8°C° 0 mm 4 mps 768 mmHg 71%
    12:00 -7°C° 0 mm 4 mps 768 mmHg 66%
    13:00 -5°C° 0 mm 3 mps 768 mmHg 63%
    14:00 -4°C° 0 mm 3 mps 768 mmHg 60%
    15:00 -3°C° 0 mm 2 mps 768 mmHg 57%
    16:00 -3°C° 0 mm 2 mps 768 mmHg 59%
    17:00 -3°C° 0 mm 2 mps 768 mmHg 61%
    18:00 -2°C° 0 mm 1 mps 768 mmHg 62%
    19:00 -2°C° 0 mm 1 mps 768 mmHg 63%
    20:00 -2°C° 0 mm 1 mps 768 mmHg 63%
    21:00 -4°C° 0 mm 0 mps 768 mmHg 64%
    22:00 -3°C° 0 mm 1 mps 768 mmHg 63%
    23:00 -3°C° 0 mm 1 mps 768 mmHg 61%

    Day after tomorrow, 25 February, Monday

    Time Temperature Precipitation Wind Pressure Humidity
    00:00 -3°C° 0 mm 1 mps 768 mmHg 60%
    01:00 -3°C° 0 mm 1 mps 768 mmHg 59%
    02:00 -5°C° 0 mm 2 mps 767 mmHg 57%
    03:00 -5°C° 0 mm 2 mps 767 mmHg 56%
    04:00 -6°C° 0 mm 3 mps 767 mmHg 59%
    05:00 -6°C° 0 mm 3 mps 766 mmHg 62%
    06:00 -7°C° 0 mm 4 mps 766 mmHg 65%
    07:00 -5°C° 0 mm 4 mps 766 mmHg 66%
    08:00 -5°C° 0 mm 4 mps 766 mmHg 67%
    09:00 -4°C° 0 mm 4 mps 766 mmHg 69%
    10:00 -3°C° 0 mm 4 mps 765 mmHg 67%
    11:00 -2°C° 0 mm 5 mps 765 mmHg 65%
    12:00 -1°C° 0 mm 5 mps 764 mmHg 64%
    13:00 0°C° 0 mm 5 mps 763 mmHg 63%
    14:00 +1°C° 0 mm 6 mps 763 mmHg 61%
    15:00 +1°C° 0 mm 6 mps 762 mmHg 60%
    16:00 +1°C° 0 mm 6 mps 761 mmHg 64%
    17:00 -1°C° 0 mm 6 mps 760 mmHg 67%
    18:00 -2°C° 0 mm 6 mps 760 mmHg 71%
    19:00 -2°C° 0 mm 6 mps 759 mmHg 72%
    20:00 -2°C° 0 mm 7 mps 758 mmHg 72%
    21:00 -2°C° 0 mm 7 mps 758 mmHg 73%
    22:00 -2°C° 0.1 mm 7 mps 757 mmHg 75%
    23:00 -2°C° 0.1 mm 7 mps 757 mmHg 77%

    26 February, Tuesday

    Time Temperature Precipitation Wind Pressure Humidity
    00:00 -2°C° 0.1 mm 7 mps 756 mmHg 79%
    01:00 -2°C° 0 mm 6 mps 755 mmHg 78%
    02:00 -2°C° 0 mm 6 mps 755 mmHg 78%
    03:00 -2°C° 0 mm 5 mps 754 mmHg 77%
    04:00 -2°C° 0 mm 5 mps 754 mmHg 79%
    05:00 -2°C° 0 mm 5 mps 754 mmHg 81%
    06:00 -2°C° 0 mm 5 mps 753 mmHg 84%
    07:00 -2°C° 0 mm 5 mps 753 mmHg 82%
    08:00 -1°C° 0 mm 5 mps 753 mmHg 81%
    09:00 -1°C° 0 mm 5 mps 753 mmHg 79%
    10:00 0°C° 0 mm 5 mps 753 mmHg 77%
    11:00 0°C° 0 mm 5 mps 752 mmHg 75%
    12:00 +1°C° 0 mm 5 mps 752 mmHg 72%
    13:00 +1°C° 0.1 mm 5 mps 752 mmHg 71%
    14:00 +1°C° 0.1 mm 6 mps 751 mmHg 70%
    15:00 +1°C° 0.1 mm 6 mps 751 mmHg 69%
    16:00 +1°C° 0 mm 5 mps 750 mmHg 71%
    17:00 0°C° 0 mm 4 mps 750 mmHg 73%
    18:00 0°C° 0 mm 4 mps 749 mmHg 75%
    19:00 -1°C° 0 mm 4 mps 749 mmHg 79%
    20:00 -1°C° 0 mm 4 mps 749 mmHg 82%
    21:00 -1°C° 0 mm 4 mps 748 mmHg 85%
    22:00 -1°C° 0.1 mm 4 mps 748 mmHg 87%
    23:00 -1°C° 0.1 mm 3 mps 748 mmHg 89%

    27 February, Wednesday

    Time Temperature Precipitation Wind Pressure Humidity
    00:00 -1°C° 0.1 mm 3 mps 747 mmHg 91%
    01:00 -1°C° 0.1 mm 3 mps 747 mmHg 92%
    02:00 -1°C° 0.1 mm 3 mps 747 mmHg 93%
    03:00 -1°C° 0.1 mm 3 mps 747 mmHg 94%
    04:00 -1°C° 0.1 mm 3 mps 747 mmHg 93%
    05:00 -1°C° 0.1 mm 3 mps 747 mmHg 92%
    06:00 -1°C° 0.1 mm 3 mps 747 mmHg 92%
    07:00 -2°C° 0 mm 4 mps 747 mmHg 88%
    08:00 -1°C° 0 mm 4 mps 747 mmHg 85%
    09:00 -1°C° 0 mm 5 mps 748 mmHg 82%
    10:00 -1°C° 0 mm 5 mps 748 mmHg 78%
    11:00 0°C° 0 mm 5 mps 748 mmHg 74%
    12:00 0°C° 0 mm 5 mps 748 mmHg 70%
    13:00 0°C° 0 mm 5 mps 748 mmHg 69%
    14:00 +1°C° 0 mm 5 mps 749 mmHg 68%
    15:00 +1°C° 0 mm 5 mps 749 mmHg 67%
    16:00 +1°C° 0 mm 4 mps 749 mmHg 69%
    17:00 0°C° 0 mm 4 mps 749 mmHg 71%
    18:00 0°C° 0 mm 4 mps 749 mmHg 73%
    19:00 -1°C° 0 mm 4 mps 749 mmHg 76%
    20:00 -1°C° 0 mm 4 mps 749 mmHg 79%
    21:00 -2°C° 0 mm 5 mps 750 mmHg 81%
    22:00 -2°C° 0 mm 5 mps 749 mmHg 81%
    23:00 -2°C° 0 mm 5 mps 749 mmHg 81%

    28 February, Thursday

    Time Temperature Precipitation Wind Pressure Humidity
    00:00 -2°C° 0 mm 5 mps 749 mmHg 81%
    01:00 -4°C° 0 mm 5 mps 749 mmHg 80%
    02:00 -4°C° 0 mm 5 mps 749 mmHg 79%
    03:00 -4°C° 0 mm 6 mps 748 mmHg 78%
    04:00 -4°C° 0 mm 6 mps 748 mmHg 77%
    05:00 -4°C° 0 mm 6 mps 747 mmHg 76%
    06:00 -4°C° 0 mm 6 mps 747 mmHg 75%
    07:00 -3°C° 0 mm 7 mps 747 mmHg 75%
    08:00 -3°C° 0 mm 7 mps 746 mmHg 76%
    09:00 -2°C° 0 mm 7 mps 746 mmHg 76%
    10:00 -2°C° 0 mm 8 mps 745 mmHg 76%
    11:00 -1°C° 0 mm 8 mps 745 mmHg 76%
    12:00 0°C° 0 mm 8 mps 744 mmHg 75%
    13:00 0°C° 0 mm 8 mps 744 mmHg 75%
    14:00 +1°C° 0 mm 8 mps 743 mmHg 75%
    15:00 +1°C° 0 mm 8 mps 742 mmHg 75%
    16:00 +2°C° 0 mm 7 mps 742 mmHg 76%
    17:00 0°C° 0 mm 7 mps 742 mmHg 78%
    18:00 0°C° 0 mm 7 mps 742 mmHg 79%
    19:00 0°C° 0 mm 7 mps 742 mmHg 79%
    20:00 -1°C° 0 mm 6 mps 742 mmHg 80%
    21:00 -1°C° 0 mm 6 mps 742 mmHg 81%
    22:00 -1°C° 0 mm 6 mps 741 mmHg 83%
    23:00 -1°C° 0 mm 6 mps 741 mmHg 85%
    Show more